Overview Statistics Trail Chart Weather Telemetry Raw packets
 

This is the latest recevied weather packets stored in our database for station/object N5ATR. If no packets are shown the sender has not sent any weather packets the latest 10 day(s).

<< 110 111 112 113 114 >>
Time Temp. Humidity Pressure Rain* Wind** Luminosity Snow
1787851644 26.11° C 39% 1028.3 hPa 0 mm - 661 W/m² -
1787851339 26.67° C 37% 1028.7 hPa 0 mm - 671 W/m² -
1787851035 26.67° C 39% 1028.7 hPa 0 mm - 648 W/m² -
1787850730 26.11° C 38% 1028.8 hPa 0 mm - 631 W/m² -
1787850430 25.56° C 40% 1028.6 hPa 0 mm - 620 W/m² -
1787850126 26.11° C 41% 1028.6 hPa 0 mm - 613 W/m² -
1787849825 25° C 41% 1028.7 hPa 0 mm - 607 W/m² -
1787849520 25° C 42% 1028.8 hPa 0 mm - 602 W/m² -
1787849219 25° C 41% 1028.7 hPa 0 mm - 592 W/m² -
1787848918 24.44° C 44% 1028.6 hPa 0 mm - 577 W/m² -
1787848614 25° C 42% 1028.7 hPa 0 mm - 564 W/m² -
1787848314 24.44° C 43% 1028.6 hPa 0 mm - 552 W/m² -
1787848014 25° C 43% 1028.4 hPa 0 mm - 538 W/m² -
1787847714 25° C 43% 1028.4 hPa 0 mm - 526 W/m² -
1787847414 25° C 43% 1028.6 hPa 0 mm - 513 W/m² -
1787847104 24.44° C 43% 1028.7 hPa 0 mm - 500 W/m² -
1787846800 23.89° C 44% 1028.6 hPa 0 mm - 472 W/m² -
1787846495 23.89° C 46% 1028.4 hPa 0 mm - 473 W/m² -
1787846191 23.33° C 45% 1028.4 hPa 0 mm - 460 W/m² -
1787845886 23.33° C 46% 1028.4 hPa 0 mm - 446 W/m² -
1787845582 22.78° C 46% 1028.6 hPa 0 mm - 433 W/m² -
1787845282 22.78° C 47% 1028.7 hPa 0 mm - 415 W/m² -
1787844978 22.78° C 48% 1028.7 hPa 0 mm - 375 W/m² -
1787844673 22.22° C 49% 1028.6 hPa 0 mm - 394 W/m² -
1787844373 21.67° C 49% 1028.6 hPa 0 mm - 404 W/m² -

* Rain latest hour (hover to see other rain measurements)
** Current wind speed in m/s (hover to see current wind gust speed)